Time,TemperatureF,DewpointF,PressureIn,WindDirection,WindDirectionDegrees,WindSpeedMPH,WindSpeedGustMPH,Humidity,HourlyPrecipIn,Conditions,Clouds,dailyrainin,SoftwareType,DateUTC
2013-05-02 00:02:00,37.3,7.1,30.31,NE,40,9.0,10.0,28,0.00,,,0.00,Wunderground PWS Mod,2013-05-02 06:02:00,
2013-05-02 00:07:00,36.9,6.8,30.31,NNE,18,4.0,7.0,28,0.00,,,0.00,Wunderground PWS Mod,2013-05-02 06:07:00,
2013-05-02 00:13:00,36.8,5.9,30.31,NNE,23,6.0,10.0,27,0.00,,,0.00,Wunderground PWS Mod,2013-05-02 06:13:00,
2013-05-02 00:18:00,36.6,6.5,30.32,ENE,65,9.0,9.0,28,0.00,,,0.00,Wunderground PWS Mod,2013-05-02 06:18:00,
2013-05-02 00:23:00,36.6,6.5,30.32,NNE,23,6.0,10.0,28,0.00,,,0.00,Wunderground PWS Mod,2013-05-02 06:23:00,
2013-05-02 00:29:00,36.5,7.2,30.32,NNE,16,6.0,9.0,29,0.00,,,0.00,Wunderground PWS Mod,2013-05-02 06:29:00,
2013-05-02 00:35:00,36.2,6.9,30.33,NNE,27,6.0,10.0,29,0.00,,,0.00,Wunderground PWS Mod,2013-05-02 06:35:00,
2013-05-02 00:40:00,36.0,6.8,30.33,NNE,31,4.0,7.0,29,0.00,,,0.00,Wunderground PWS Mod,2013-05-02 06:40:00,
2013-05-02 00:46:00,35.9,7.4,30.35,NNE,22,4.0,5.0,30,0.00,,,0.00,Wunderground PWS Mod,2013-05-02 06:46:00,
2013-05-02 00:51:00,35.9,7.4,30.35,NE,44,5.0,6.0,30,0.00,,,0.00,Wunderground PWS Mod,2013-05-02 06:51:00,
2013-05-02 00:57:00,36.0,7.5,30.35,NNE,23,6.0,7.0,30,0.00,,,0.00,Wunderground PWS Mod,2013-05-02 06:57:00,
2013-05-02 01:02:00,36.2,8.4,30.35,NNE,20,9.0,9.0,31,0.00,,,0.00,Wunderground PWS Mod,2013-05-02 07:02:00,
2013-05-02 01:08:00,35.9,8.2,30.35,NNE,15,4.0,9.0,31,0.00,,,0.00,Wunderground PWS Mod,2013-05-02 07:08:00,
2013-05-02 01:13:00,35.9,8.2,30.35,NNE,23,5.0,11.0,31,0.00,,,0.00,Wunderground PWS Mod,2013-05-02 07:13:00,
2013-05-02 01:18:00,35.6,8.6,30.35,NNE,30,11.0,11.0,32,0.00,,,0.00,Wunderground PWS Mod,2013-05-02 07:18:00,
2013-05-02 01:24:00,35.5,9.2,30.35,NNE,25,7.0,14.0,33,0.00,,,0.00,Wunderground PWS Mod,2013-05-02 07:24:00,
2013-05-02 01:30:00,35.6,9.3,30.35,NNE,21,5.0,8.0,33,0.00,,,0.00,Wunderground PWS Mod,2013-05-02 07:30:00,
2013-05-02 01:35:00,35.3,9.0,30.35,NNE,24,6.0,8.0,33,0.00,,,0.00,Wunderground PWS Mod,2013-05-02 07:35:00,
2013-05-02 01:41:00,35.0,8.7,30.35,NE,37,5.0,6.0,33,0.00,,,0.00,Wunderground PWS Mod,2013-05-02 07:41:00,
2013-05-02 01:46:00,34.6,9.1,30.35,NNE,23,4.0,6.0,34,0.00,,,0.00,Wunderground PWS Mod,2013-05-02 07:46:00,
2013-05-02 01:52:00,34.1,9.3,30.35,NNE,20,5.0,5.0,35,0.00,,,0.00,Wunderground PWS Mod,2013-05-02 07:52:00,
2013-05-02 01:57:00,34.3,9.4,30.35,NNE,28,8.0,8.0,35,0.00,,,0.00,Wunderground PWS Mod,2013-05-02 07:57:00,
2013-05-02 02:02:00,34.3,9.4,30.37,NNE,26,5.0,9.0,35,0.00,,,0.00,Wunderground PWS Mod,2013-05-02 08:02:00,
2013-05-02 02:07:00,34.0,9.2,30.37,NNE,19,4.0,6.0,35,0.00,,,0.00,Wunderground PWS Mod,2013-05-02 08:07:00,
2013-05-02 02:12:00,33.8,9.6,30.37,NE,39,6.0,7.0,36,0.00,,,0.00,Wunderground PWS Mod,2013-05-02 08:12:00,
2013-05-02 02:17:00,33.7,9.5,30.38,NE,35,5.0,7.0,36,0.00,,,0.00,Wunderground PWS Mod,2013-05-02 08:17:00,
2013-05-02 02:22:00,33.8,10.2,30.38,NNE,20,6.0,9.0,37,0.00,,,0.00,Wunderground PWS Mod,2013-05-02 08:22:00,
2013-05-02 02:27:00,33.8,10.2,30.38,NNE,25,5.0,6.0,37,0.00,,,0.00,Wunderground PWS Mod,2013-05-02 08:27:00,
2013-05-02 02:32:00,33.8,10.2,30.39,NE,34,6.0,9.0,37,0.00,,,0.00,Wunderground PWS Mod,2013-05-02 08:32:00,
2013-05-02 02:37:00,33.8,10.8,30.39,NNE,15,3.0,7.0,38,0.00,,,0.00,Wunderground PWS Mod,2013-05-02 08:37:00,
2013-05-02 02:42:00,33.7,10.7,30.39,NNE,27,4.0,6.0,38,0.00,,,0.00,Wunderground PWS Mod,2013-05-02 08:42:00,
2013-05-02 02:47:00,33.4,10.5,30.39,NNE,19,5.0,9.0,38,0.00,,,0.00,Wunderground PWS Mod,2013-05-02 08:47:00,
2013-05-02 02:52:00,33.2,10.9,30.39,NNE,25,2.0,5.0,39,0.00,,,0.00,Wunderground PWS Mod,2013-05-02 08:52:00,
2013-05-02 02:57:00,32.9,10.6,30.39,NNE,22,4.0,6.0,39,0.00,,,0.00,Wunderground PWS Mod,2013-05-02 08:57:00,
2013-05-02 03:02:00,32.8,11.1,30.41,NE,35,5.0,11.0,40,0.00,,,0.00,Wunderground PWS Mod,2013-05-02 09:02:00,
2013-05-02 03:07:00,33.1,10.8,30.41,NE,44,5.0,6.0,39,0.00,,,0.00,Wunderground PWS Mod,2013-05-02 09:07:00,
2013-05-02 03:12:00,33.1,10.8,30.41,NNE,23,4.0,6.0,39,0.00,,,0.00,Wunderground PWS Mod,2013-05-02 09:12:00,
2013-05-02 03:17:00,32.9,10.6,30.40,NNE,26,4.0,6.0,39,0.00,,,0.00,Wunderground PWS Mod,2013-05-02 09:17:00,
2013-05-02 03:22:00,32.8,11.1,30.40,NNE,30,3.0,5.0,40,0.00,,,0.00,Wunderground PWS Mod,2013-05-02 09:22:00,
2013-05-02 03:27:00,32.4,10.7,30.40,NNE,27,5.0,6.0,40,0.00,,,0.00,Wunderground PWS Mod,2013-05-02 09:27:00,
2013-05-02 03:32:00,32.4,10.7,30.42,NE,34,2.0,5.0,40,0.00,,,0.00,Wunderground PWS Mod,2013-05-02 09:32:00,
2013-05-02 03:37:00,31.9,10.8,30.42,NNE,33,2.0,5.0,41,0.00,,,0.00,Wunderground PWS Mod,2013-05-02 09:37:00,
2013-05-02 03:42:00,31.8,10.7,30.42,NNE,26,3.0,6.0,41,0.00,,,0.00,Wunderground PWS Mod,2013-05-02 09:42:00,
2013-05-02 03:47:00,31.8,10.7,30.42,NNE,26,3.0,5.0,41,0.00,,,0.00,Wunderground PWS Mod,2013-05-02 09:47:00,
2013-05-02 03:52:00,31.9,10.3,30.42,NNE,21,5.0,6.0,40,0.00,,,0.00,Wunderground PWS Mod,2013-05-02 09:52:00,
2013-05-02 03:57:00,31.9,10.3,30.42,NNE,13,5.0,10.0,40,0.00,,,0.00,Wunderground PWS Mod,2013-05-02 09:57:00,
2013-05-02 04:02:00,31.9,9.7,30.42,NNE,20,4.0,4.0,39,0.00,,,0.00,Wunderground PWS Mod,2013-05-02 10:02:00,
2013-05-02 04:07:00,31.9,9.1,30.42,NNE,20,3.0,5.0,38,0.00,,,0.00,Wunderground PWS Mod,2013-05-02 10:07:00,
2013-05-02 04:12:00,32.1,8.7,30.42,NNE,19,4.0,6.0,37,0.00,,,0.00,Wunderground PWS Mod,2013-05-02 10:12:00,
2013-05-02 04:17:00,31.9,8.5,30.43,NNE,27,3.0,6.0,37,0.00,,,0.00,Wunderground PWS Mod,2013-05-02 10:17:00,
2013-05-02 04:22:00,31.8,8.4,30.43,NNE,17,6.0,7.0,37,0.00,,,0.00,Wunderground PWS Mod,2013-05-02 10:22:00,
2013-05-02 04:27:00,31.9,7.3,30.43,NNE,27,5.0,9.0,35,0.00,,,0.00,Wunderground PWS Mod,2013-05-02 10:27:00,
2013-05-02 04:32:00,32.2,4.9,30.43,NNE,28,5.0,11.0,31,0.00,,,0.00,Wunderground PWS Mod,2013-05-02 10:32:00,
2013-05-02 04:37:00,32.1,6.2,30.43,NNE,20,6.0,7.0,33,0.00,,,0.00,Wunderground PWS Mod,2013-05-02 10:37:00,
2013-05-02 04:42:00,31.9,5.3,30.43,NE,45,10.0,10.0,32,0.00,,,0.00,Wunderground PWS Mod,2013-05-02 10:42:00,
2013-05-02 04:47:00,32.2,4.9,30.44,NNE,19,4.0,10.0,31,0.00,,,0.00,Wunderground PWS Mod,2013-05-02 10:47:00,
2013-05-02 04:52:00,32.1,4.8,30.44,NNE,29,4.0,7.0,31,0.00,,,0.00,Wunderground PWS Mod,2013-05-02 10:52:00,
2013-05-02 04:57:00,31.9,4.6,30.44,NNE,23,6.0,9.0,31,0.00,,,0.00,Wunderground PWS Mod,2013-05-02 10:57:00,
2013-05-02 05:02:00,31.9,3.9,30.45,NNE,13,6.0,11.0,30,0.00,,,0.00,Wunderground PWS Mod,2013-05-02 11:02:00,
2013-05-02 05:07:00,31.8,3.8,30.45,NNE,26,3.0,6.0,30,0.00,,,0.00,Wunderground PWS Mod,2013-05-02 11:07:00,
2013-05-02 05:12:00,31.2,4.0,30.45,NNE,27,2.0,5.0,31,0.00,,,0.00,Wunderground PWS Mod,2013-05-02 11:12:00,
2013-05-02 05:17:00,30.6,4.2,30.49,NNE,19,4.0,4.0,32,0.00,,,0.00,Wunderground PWS Mod,2013-05-02 11:17:00,
2013-05-02 05:22:00,30.1,4.4,30.49,NNE,23,1.0,2.0,33,0.00,,,0.00,Wunderground PWS Mod,2013-05-02 11:22:00,
2013-05-02 05:27:00,29.7,4.1,30.49,NE,37,3.0,4.0,33,0.00,,,0.00,Wunderground PWS Mod,2013-05-02 11:27:00,
2013-05-02 05:32:00,29.8,4.1,30.49,NE,48,1.0,2.0,33,0.00,,,0.00,Wunderground PWS Mod,2013-05-02 11:32:00,
2013-05-02 05:37:00,29.7,4.1,30.49,NE,41,1.0,3.0,33,0.00,,,0.00,Wunderground PWS Mod,2013-05-02 11:37:00,
2013-05-02 05:42:00,29.4,3.8,30.49,NNE,32,2.0,3.0,33,0.00,,,0.00,Wunderground PWS Mod,2013-05-02 11:42:00,
2013-05-02 05:47:00,29.3,3.7,30.51,NE,47,3.0,3.0,33,0.00,,,0.00,Wunderground PWS Mod,2013-05-02 11:47:00,
2013-05-02 05:52:00,28.8,3.9,30.51,NNE,20,2.0,5.0,34,0.00,,,0.00,Wunderground PWS Mod,2013-05-02 11:52:00,
2013-05-02 05:57:00,28.5,4.3,30.51,NNE,18,6.0,6.0,35,0.00,,,0.00,Wunderground PWS Mod,2013-05-02 11:57:00,
2013-05-02 06:02:00,28.8,3.9,30.52,NE,46,3.0,5.0,34,0.00,,,0.00,Wunderground PWS Mod,2013-05-02 12:02:00,
2013-05-02 06:07:00,28.7,4.5,30.52,NE,42,3.0,4.0,35,0.00,,,0.00,Wunderground PWS Mod,2013-05-02 12:07:00,
2013-05-02 06:12:00,28.8,4.5,30.52,NNE,27,3.0,5.0,35,0.00,,,0.00,Wunderground PWS Mod,2013-05-02 12:12:00,
2013-05-02 06:17:00,29.0,4.7,30.54,NNE,32,3.0,4.0,35,0.00,,,0.00,Wunderground PWS Mod,2013-05-02 12:17:00,
2013-05-02 06:22:00,28.8,4.5,30.54,NNE,23,1.0,4.0,35,0.00,,,0.00,Wunderground PWS Mod,2013-05-02 12:22:00,
2013-05-02 06:27:00,28.7,4.5,30.54,NE,39,1.0,3.0,35,0.00,,,0.00,Wunderground PWS Mod,2013-05-02 12:27:00,
2013-05-02 06:33:00,28.8,4.5,30.54,NE,40,1.0,5.0,35,0.00,,,0.00,Wunderground PWS Mod,2013-05-02 12:33:00,
2013-05-02 06:38:00,29.3,4.4,30.54,NE,48,2.0,4.0,34,0.00,,,0.00,Wunderground PWS Mod,2013-05-02 12:38:00,
2013-05-02 06:43:00,29.7,4.7,30.54,NE,48,1.0,2.0,34,0.00,,,0.00,Wunderground PWS Mod,2013-05-02 12:43:00,
2013-05-02 06:48:00,30.1,4.4,30.55,NNE,18,2.0,4.0,33,0.00,,,0.00,Wunderground PWS Mod,2013-05-02 12:48:00,
2013-05-02 06:53:00,30.4,4.7,30.55,NNE,30,2.0,3.0,33,0.00,,,0.00,Wunderground PWS Mod,2013-05-02 12:53:00,
2013-05-02 06:59:00,31.0,3.8,30.55,NNE,20,4.0,6.0,31,0.00,,,0.00,Wunderground PWS Mod,2013-05-02 12:59:00,
2013-05-02 07:04:00,31.6,3.7,30.55,NNE,27,5.0,6.0,30,0.00,,,0.00,Wunderground PWS Mod,2013-05-02 13:04:00,
2013-05-02 07:09:00,32.1,3.4,30.55,North,356,4.0,5.0,29,0.00,,,0.00,Wunderground PWS Mod,2013-05-02 13:09:00,
2013-05-02 07:14:00,32.4,3.6,30.55,NNE,24,6.0,7.0,29,0.00,,,0.00,Wunderground PWS Mod,2013-05-02 13:14:00,
2013-05-02 07:19:00,32.7,3.9,30.55,North,4,2.0,6.0,29,0.00,,,0.00,Wunderground PWS Mod,2013-05-02 13:19:00,
2013-05-02 07:24:00,32.9,4.1,30.55,North,0,3.0,6.0,29,0.00,,,0.00,Wunderground PWS Mod,2013-05-02 13:24:00,
2013-05-02 07:29:00,33.2,3.6,30.55,North,8,2.0,7.0,28,0.00,,,0.00,Wunderground PWS Mod,2013-05-02 13:29:00,
2013-05-02 07:34:00,33.5,4.6,30.56,NNE,17,5.0,6.0,29,0.00,,,0.00,Wunderground PWS Mod,2013-05-02 13:34:00,
2013-05-02 07:39:00,34.1,4.3,30.56,NNE,15,3.0,7.0,28,0.00,,,0.00,Wunderground PWS Mod,2013-05-02 13:39:00,
2013-05-02 07:44:00,34.3,3.7,30.56,NNE,16,4.0,6.0,27,0.00,,,0.00,Wunderground PWS Mod,2013-05-02 13:44:00,
2013-05-02 07:49:00,34.4,4.6,30.55,NNE,32,4.0,12.0,28,0.00,,,0.00,Wunderground PWS Mod,2013-05-02 13:49:00,
2013-05-02 07:54:00,34.7,4.9,30.55,NE,37,10.0,10.0,28,0.00,,,0.00,Wunderground PWS Mod,2013-05-02 13:54:00,
2013-05-02 07:59:00,35.0,4.3,30.55,NNW,340,8.0,9.0,27,0.00,,,0.00,Wunderground PWS Mod,2013-05-02 13:59:00,
2013-05-02 08:04:00,35.2,5.3,30.55,NNE,29,5.0,6.0,28,0.00,,,0.00,Wunderground PWS Mod,2013-05-02 14:04:00,
2013-05-02 08:09:00,35.6,5.6,30.55,NE,39,7.0,7.0,28,0.00,,,0.00,Wunderground PWS Mod,2013-05-02 14:09:00,
2013-05-02 08:14:00,35.5,4.8,30.55,NE,37,7.0,14.0,27,0.00,,,0.00,Wunderground PWS Mod,2013-05-02 14:14:00,
2013-05-02 08:19:00,35.8,5.0,30.58,NNE,23,6.0,9.0,27,0.00,,,0.00,Wunderground PWS Mod,2013-05-02 14:19:00,
2013-05-02 08:24:00,36.2,4.5,30.58,NE,34,4.0,17.0,26,0.00,,,0.00,Wunderground PWS Mod,2013-05-02 14:24:00,
2013-05-02 08:29:00,36.9,5.1,30.58,NE,41,9.0,10.0,26,0.00,,,0.00,Wunderground PWS Mod,2013-05-02 14:29:00,
2013-05-02 08:34:00,37.0,4.4,30.56,East,91,3.0,11.0,25,0.00,,,0.00,Wunderground PWS Mod,2013-05-02 14:34:00,
2013-05-02 08:39:00,37.2,3.7,30.56,NE,36,5.0,15.0,24,0.00,,,0.00,Wunderground PWS Mod,2013-05-02 14:39:00,
2013-05-02 08:44:00,37.2,4.5,30.56,NNE,27,3.0,14.0,25,0.00,,,0.00,Wunderground PWS Mod,2013-05-02 14:44:00,
2013-05-02 08:49:00,38.0,4.3,30.56,NW,316,7.0,9.0,24,0.00,,,0.00,Wunderground PWS Mod,2013-05-02 14:49:00,
2013-05-02 08:54:00,38.6,4.9,30.56,NNE,12,7.0,9.0,24,0.00,,,0.00,Wunderground PWS Mod,2013-05-02 14:54:00,
2013-05-02 08:59:00,38.8,3.1,30.56,NNE,19,7.0,14.0,22,0.00,,,0.00,Wunderground PWS Mod,2013-05-02 14:59:00,
2013-05-02 09:04:00,38.9,5.1,30.55,NNE,27,11.0,12.0,24,0.00,,,0.00,Wunderground PWS Mod,2013-05-02 15:04:00,
2013-05-02 09:09:00,39.1,2.4,30.55,NE,36,5.0,15.0,21,0.00,,,0.00,Wunderground PWS Mod,2013-05-02 15:09:00,
2013-05-02 09:14:00,39.1,2.4,30.55,NE,41,7.0,13.0,21,0.00,,,0.00,Wunderground PWS Mod,2013-05-02 15:14:00,
2013-05-02 09:19:00,39.8,3.0,30.54,NNE,26,6.0,15.0,21,0.00,,,0.00,Wunderground PWS Mod,2013-05-02 15:19:00,
2013-05-02 09:24:00,40.2,3.3,30.54,NNE,19,9.0,15.0,21,0.00,,,0.00,Wunderground PWS Mod,2013-05-02 15:24:00,
2013-05-02 09:29:00,40.5,2.5,30.54,NNE,22,9.0,12.0,20,0.00,,,0.00,Wunderground PWS Mod,2013-05-02 15:29:00,
2013-05-02 09:34:00,40.2,3.3,30.53,NNE,27,5.0,16.0,21,0.00,,,0.00,Wunderground PWS Mod,2013-05-02 15:34:00,
2013-05-02 09:39:00,40.6,2.6,30.53,ENE,60,6.0,13.0,20,0.00,,,0.00,Wunderground PWS Mod,2013-05-02 15:39:00,
2013-05-02 09:44:00,40.8,2.7,30.53,ENE,63,9.0,13.0,20,0.00,,,0.00,Wunderground PWS Mod,2013-05-02 15:44:00,
2013-05-02 09:49:00,41.6,2.3,30.53,NE,47,7.0,12.0,19,0.00,,,0.00,Wunderground PWS Mod,2013-05-02 15:49:00,
2013-05-02 09:54:00,41.2,3.1,30.53,NNE,18,5.0,15.0,20,0.00,,,0.00,Wunderground PWS Mod,2013-05-02 15:54:00,
2013-05-02 09:59:00,41.3,3.2,30.53,NNE,23,7.0,15.0,20,0.00,,,0.00,Wunderground PWS Mod,2013-05-02 15:59:00,
2013-05-02 10:04:00,42.3,4.0,30.51,NNE,23,5.0,10.0,20,0.00,,,0.00,Wunderground PWS Mod,2013-05-02 16:04:00,
2013-05-02 10:09:00,42.9,2.2,30.51,NNE,31,7.0,15.0,18,0.00,,,0.00,Wunderground PWS Mod,2013-05-02 16:09:00,
2013-05-02 10:14:00,42.5,0.7,30.51,East,80,5.0,15.0,17,0.00,,,0.00,Wunderground PWS Mod,2013-05-02 16:14:00,
2013-05-02 10:19:00,42.9,2.2,30.51,North,0,5.0,12.0,18,0.00,,,0.00,Wunderground PWS Mod,2013-05-02 16:19:00,
2013-05-02 10:24:00,42.9,-0.3,30.51,NE,48,10.0,13.0,16,0.00,,,0.00,Wunderground PWS Mod,2013-05-02 16:24:00,
2013-05-02 10:29:00,43.1,-0.1,30.51,NNE,13,7.0,15.0,16,0.00,,,0.00,Wunderground PWS Mod,2013-05-02 16:29:00,
2013-05-02 10:34:00,43.3,2.6,30.52,NNE,24,8.0,12.0,18,0.00,,,0.00,Wunderground PWS Mod,2013-05-02 16:34:00,
2013-05-02 10:39:00,42.8,-0.4,30.52,NE,41,11.0,14.0,16,0.00,,,0.00,Wunderground PWS Mod,2013-05-02 16:39:00,
2013-05-02 10:44:00,43.2,-0.1,30.52,NNE,20,9.0,13.0,16,0.00,,,0.00,Wunderground PWS Mod,2013-05-02 16:44:00,
2013-05-02 10:49:00,43.3,0.0,30.52,NE,50,5.0,14.0,16,0.00,,,0.00,Wunderground PWS Mod,2013-05-02 16:49:00,
2013-05-02 10:54:00,43.5,-1.2,30.52,NNE,21,12.0,19.0,15,0.00,,,0.00,Wunderground PWS Mod,2013-05-02 16:54:00,
2013-05-02 10:59:00,44.5,3.5,30.52,NE,46,9.0,13.0,18,0.00,,,0.00,Wunderground PWS Mod,2013-05-02 16:59:00,
2013-05-02 11:04:00,44.5,1.0,30.51,NNE,15,8.0,13.0,16,0.00,,,0.00,Wunderground PWS Mod,2013-05-02 17:04:00,
2013-05-02 11:09:00,44.3,2.1,30.51,North,6,6.0,16.0,17,0.00,,,0.00,Wunderground PWS Mod,2013-05-02 17:09:00,
2013-05-02 11:14:00,44.5,2.3,30.51,North,11,9.0,15.0,17,0.00,,,0.00,Wunderground PWS Mod,2013-05-02 17:14:00,
2013-05-02 11:19:00,45.2,2.9,30.52,North,0,9.0,18.0,17,0.00,,,0.00,Wunderground PWS Mod,2013-05-02 17:19:00,
2013-05-02 11:24:00,46.0,3.5,30.52,NNE,27,5.0,12.0,17,0.00,,,0.00,Wunderground PWS Mod,2013-05-02 17:24:00,
2013-05-02 11:29:00,45.7,2.0,30.52,NE,56,15.0,15.0,16,0.00,,,0.00,Wunderground PWS Mod,2013-05-02 17:29:00,
2013-05-02 11:34:00,45.5,-1.0,30.52,NNE,25,5.0,16.0,14,0.00,,,0.00,Wunderground PWS Mod,2013-05-02 17:34:00,
2013-05-02 11:39:00,45.5,0.4,30.52,NE,45,9.0,13.0,15,0.00,,,0.00,Wunderground PWS Mod,2013-05-02 17:39:00,
2013-05-02 11:44:00,45.7,0.6,30.52,NNE,27,3.0,10.0,15,0.00,,,0.00,Wunderground PWS Mod,2013-05-02 17:44:00,
2013-05-02 11:49:00,46.5,3.9,30.52,North,8,8.0,13.0,17,0.00,,,0.00,Wunderground PWS Mod,2013-05-02 17:49:00,
2013-05-02 11:54:00,46.7,-0.1,30.52,NNE,15,13.0,20.0,14,0.00,,,0.00,Wunderground PWS Mod,2013-05-02 17:54:00,
2013-05-02 11:59:00,46.5,-1.8,30.52,North,4,5.0,18.0,13,0.00,,,0.00,Wunderground PWS Mod,2013-05-02 17:59:00,
2013-05-02 12:04:00,47.0,0.2,30.50,NNE,32,7.0,13.0,14,0.00,,,0.00,Wunderground PWS Mod,2013-05-02 18:04:00,
2013-05-02 12:09:00,47.3,-1.2,30.50,NNE,15,9.0,16.0,13,0.00,,,0.00,Wunderground PWS Mod,2013-05-02 18:09:00,
2013-05-02 12:14:00,46.7,-0.1,30.50,NE,34,5.0,17.0,14,0.00,,,0.00,Wunderground PWS Mod,2013-05-02 18:14:00,
2013-05-02 12:19:00,47.9,0.9,30.51,North,354,5.0,14.0,14,0.00,,,0.00,Wunderground PWS Mod,2013-05-02 18:19:00,
2013-05-02 12:24:00,48.6,1.5,30.51,North,4,5.0,12.0,14,0.00,,,0.00,Wunderground PWS Mod,2013-05-02 18:24:00,
2013-05-02 12:30:00,48.9,0.1,30.51,NNE,19,6.0,12.0,13,0.00,,,0.00,Wunderground PWS Mod,2013-05-02 18:30:00,
2013-05-02 12:35:00,48.6,1.5,30.49,NNE,16,5.0,7.0,14,0.00,,,0.00,Wunderground PWS Mod,2013-05-02 18:35:00,
2013-05-02 12:40:00,48.9,0.1,30.49,NE,37,3.0,7.0,13,0.00,,,0.00,Wunderground PWS Mod,2013-05-02 18:40:00,
2013-05-02 12:45:00,48.3,-2.1,30.49,NNE,30,7.0,8.0,12,0.00,,,0.00,Wunderground PWS Mod,2013-05-02 18:45:00,
2013-05-02 12:50:00,49.1,0.3,30.49,NNE,31,6.0,7.0,13,0.00,,,0.00,Wunderground PWS Mod,2013-05-02 18:50:00,
2013-05-02 12:55:00,49.8,-0.9,30.49,NE,47,4.0,5.0,12,0.00,,,0.00,Wunderground PWS Mod,2013-05-02 18:55:00,
2013-05-02 13:00:00,50.5,1.4,30.47,NNE,17,6.0,6.0,13,0.00,,,0.00,Wunderground PWS Mod,2013-05-02 19:00:00,
2013-05-02 13:05:00,49.6,-1.0,30.47,NNE,24,7.0,7.0,12,0.00,,,0.00,Wunderground PWS Mod,2013-05-02 19:05:00,
2013-05-02 13:10:00,50.2,-0.6,30.47,NNE,16,10.0,10.0,12,0.00,,,0.00,Wunderground PWS Mod,2013-05-02 19:10:00,
2013-05-02 13:15:00,50.5,-0.3,30.47,North,11,4.0,7.0,12,0.00,,,0.00,Wunderground PWS Mod,2013-05-02 19:15:00,
2013-05-02 13:20:00,51.3,-1.5,30.47,NNW,343,10.0,10.0,11,0.00,,,0.00,Wunderground PWS Mod,2013-05-02 19:20:00,
2013-05-02 13:25:00,51.3,0.3,30.47,NE,37,9.0,9.0,12,0.00,,,0.00,Wunderground PWS Mod,2013-05-02 19:25:00,
2013-05-02 13:30:00,50.2,-4.4,30.48,NNE,25,4.0,8.0,10,0.00,,,0.00,Wunderground PWS Mod,2013-05-02 19:30:00,
2013-05-02 13:35:00,50.2,-0.6,30.48,NNW,345,12.0,13.0,12,0.00,,,0.00,Wunderground PWS Mod,2013-05-02 19:35:00,
2013-05-02 13:40:00,51.0,-3.8,30.48,NNE,20,6.0,7.0,10,0.00,,,0.00,Wunderground PWS Mod,2013-05-02 19:40:00,
2013-05-02 13:45:00,51.3,-3.6,30.47,North,5,4.0,15.0,10,0.00,,,0.00,Wunderground PWS Mod,2013-05-02 19:45:00,
2013-05-02 13:50:00,51.3,-1.5,30.47,NNE,13,7.0,9.0,11,0.00,,,0.00,Wunderground PWS Mod,2013-05-02 19:50:00,
2013-05-02 13:55:00,51.3,0.3,30.47,North,353,11.0,12.0,12,0.00,,,0.00,Wunderground PWS Mod,2013-05-02 19:55:00,
2013-05-02 14:00:00,51.1,0.1,30.47,North,10,4.0,7.0,12,0.00,,,0.00,Wunderground PWS Mod,2013-05-02 20:00:00,
2013-05-02 14:05:00,51.9,-1.1,30.47,NNE,15,6.0,7.0,11,0.00,,,0.00,Wunderground PWS Mod,2013-05-02 20:05:00,
2013-05-02 14:10:00,51.4,-3.5,30.47,NE,45,10.0,12.0,10,0.00,,,0.00,Wunderground PWS Mod,2013-05-02 20:10:00,
2013-05-02 14:15:00,50.8,-3.9,30.46,North,358,6.0,9.0,10,0.00,,,0.00,Wunderground PWS Mod,2013-05-02 20:15:00,
2013-05-02 14:20:00,51.1,-1.7,30.46,NNW,345,15.0,15.0,11,0.00,,,0.00,Wunderground PWS Mod,2013-05-02 20:20:00,
2013-05-02 14:25:00,50.8,-1.9,30.46,NNE,14,9.0,9.0,11,0.00,,,0.00,Wunderground PWS Mod,2013-05-02 20:25:00,
2013-05-02 14:30:00,51.7,-3.2,30.45,North,10,6.0,10.0,10,0.00,,,0.00,Wunderground PWS Mod,2013-05-02 20:30:00,
2013-05-02 14:35:00,51.4,-1.5,30.45,NNE,25,7.0,8.0,11,0.00,,,0.00,Wunderground PWS Mod,2013-05-02 20:35:00,
2013-05-02 14:40:00,51.4,-1.5,30.45,North,1,4.0,8.0,11,0.00,,,0.00,Wunderground PWS Mod,2013-05-02 20:40:00,
2013-05-02 14:45:00,52.0,-1.0,30.45,North,7,4.0,6.0,11,0.00,,,0.00,Wunderground PWS Mod,2013-05-02 20:45:00,
2013-05-02 14:50:00,52.5,-2.6,30.45,NNE,25,6.0,10.0,10,0.00,,,0.00,Wunderground PWS Mod,2013-05-02 20:50:00,
2013-05-02 14:55:00,52.3,-0.8,30.45,NNE,23,6.0,8.0,11,0.00,,,0.00,Wunderground PWS Mod,2013-05-02 20:55:00,
2013-05-02 15:00:00,52.9,-2.3,30.43,NNW,345,6.0,10.0,10,0.00,,,0.00,Wunderground PWS Mod,2013-05-02 21:00:00,
2013-05-02 15:05:00,52.6,-2.6,30.43,North,358,3.0,6.0,10,0.00,,,0.00,Wunderground PWS Mod,2013-05-02 21:05:00,
2013-05-02 15:10:00,52.6,-2.6,30.43,North,356,9.0,12.0,10,0.00,,,0.00,Wunderground PWS Mod,2013-05-02 21:10:00,
2013-05-02 15:15:00,52.2,-2.9,30.45,NNE,14,5.0,7.0,10,0.00,,,0.00,Wunderground PWS Mod,2013-05-02 21:15:00,
2013-05-02 15:20:00,52.6,-2.6,30.45,NNW,336,5.0,8.0,10,0.00,,,0.00,Wunderground PWS Mod,2013-05-02 21:20:00,
2013-05-02 15:25:00,52.8,-2.4,30.45,NNE,18,14.0,14.0,10,0.00,,,0.00,Wunderground PWS Mod,2013-05-02 21:25:00,
2013-05-02 15:30:00,52.8,-4.6,30.44,NNE,17,12.0,12.0,9,0.00,,,0.00,Wunderground PWS Mod,2013-05-02 21:30:00,
2013-05-02 15:35:00,52.2,-2.9,30.44,NE,41,5.0,8.0,10,0.00,,,0.00,Wunderground PWS Mod,2013-05-02 21:35:00,
2013-05-02 15:40:00,52.6,-0.5,30.44,NNE,15,6.0,7.0,11,0.00,,,0.00,Wunderground PWS Mod,2013-05-02 21:40:00,
2013-05-02 15:45:00,52.8,-0.4,30.43,NNW,340,12.0,12.0,11,0.00,,,0.00,Wunderground PWS Mod,2013-05-02 21:45:00,
2013-05-02 15:50:00,53.5,0.2,30.43,NNW,336,5.0,10.0,11,0.00,,,0.00,Wunderground PWS Mod,2013-05-02 21:50:00,
2013-05-02 15:55:00,53.2,-2.1,30.43,North,7,5.0,12.0,10,0.00,,,0.00,Wunderground PWS Mod,2013-05-02 21:55:00,
2013-05-02 16:00:00,53.6,-1.8,30.41,North,9,4.0,7.0,10,0.00,,,0.00,Wunderground PWS Mod,2013-05-02 22:00:00,
2013-05-02 16:05:00,53.2,-4.3,30.41,NE,42,9.0,9.0,9,0.00,,,0.00,Wunderground PWS Mod,2013-05-02 22:05:00,
2013-05-02 16:10:00,53.1,-4.4,30.41,North,11,4.0,7.0,9,0.00,,,0.00,Wunderground PWS Mod,2013-05-02 22:10:00,
2013-05-02 16:15:00,52.9,-2.3,30.42,NNE,28,7.0,7.0,10,0.00,,,0.00,Wunderground PWS Mod,2013-05-02 22:15:00,
2013-05-02 16:20:00,52.6,-4.8,30.42,North,0,9.0,9.0,9,0.00,,,0.00,Wunderground PWS Mod,2013-05-02 22:20:00,
2013-05-02 16:25:00,52.8,-4.6,30.42,NNW,329,9.0,12.0,9,0.00,,,0.00,Wunderground PWS Mod,2013-05-02 22:25:00,
2013-05-02 16:30:00,53.3,0.0,30.42,NNW,340,6.0,7.0,11,0.00,,,0.00,Wunderground PWS Mod,2013-05-02 22:30:00,
2013-05-02 16:35:00,53.5,0.2,30.42,NNE,12,7.0,9.0,11,0.00,,,0.00,Wunderground PWS Mod,2013-05-02 22:35:00,
2013-05-02 16:40:00,53.9,-1.5,30.42,North,353,5.0,10.0,10,0.00,,,0.00,Wunderground PWS Mod,2013-05-02 22:40:00,
2013-05-02 16:45:00,53.2,-4.3,30.41,NNE,21,6.0,11.0,9,0.00,,,0.00,Wunderground PWS Mod,2013-05-02 22:45:00,
2013-05-02 16:50:00,53.1,-2.2,30.41,NE,35,5.0,7.0,10,0.00,,,0.00,Wunderground PWS Mod,2013-05-02 22:50:00,
2013-05-02 16:55:00,53.3,-2.0,30.41,North,352,6.0,7.0,10,0.00,,,0.00,Wunderground PWS Mod,2013-05-02 22:55:00,
2013-05-02 17:00:00,53.6,-1.8,30.39,North,358,4.0,6.0,10,0.00,,,0.00,Wunderground PWS Mod,2013-05-02 23:00:00,
2013-05-02 17:05:00,53.5,2.0,30.39,NNE,31,6.0,6.0,12,0.00,,,0.00,Wunderground PWS Mod,2013-05-02 23:05:00,
2013-05-02 17:10:00,53.3,-4.2,30.39,NNW,347,10.0,10.0,9,0.00,,,0.00,Wunderground PWS Mod,2013-05-02 23:10:00,
2013-05-02 17:15:00,53.8,0.4,30.42,NNE,19,9.0,9.0,11,0.00,,,0.00,Wunderground PWS Mod,2013-05-02 23:15:00,
2013-05-02 17:20:00,53.6,-4.0,30.42,North,11,4.0,7.0,9,0.00,,,0.00,Wunderground PWS Mod,2013-05-02 23:20:00,
2013-05-02 17:25:00,53.5,-1.9,30.42,North,8,8.0,9.0,10,0.00,,,0.00,Wunderground PWS Mod,2013-05-02 23:25:00,
2013-05-02 17:30:00,53.2,-2.1,30.42,North,354,4.0,6.0,10,0.00,,,0.00,Wunderground PWS Mod,2013-05-02 23:30:00,
2013-05-02 17:35:00,53.6,-1.8,30.42,NNE,14,9.0,10.0,10,0.00,,,0.00,Wunderground PWS Mod,2013-05-02 23:35:00,
2013-05-02 17:40:00,53.6,-1.8,30.42,NNE,24,9.0,9.0,10,0.00,,,0.00,Wunderground PWS Mod,2013-05-02 23:40:00,
2013-05-02 17:45:00,53.2,-2.1,30.42,NNE,24,12.0,12.0,10,0.00,,,0.00,Wunderground PWS Mod,2013-05-02 23:45:00,
2013-05-02 17:50:00,52.8,-2.4,30.42,North,1,10.0,11.0,10,0.00,,,0.00,Wunderground PWS Mod,2013-05-02 23:50:00,
2013-05-02 17:55:00,52.8,-0.4,30.42,North,2,5.0,10.0,11,0.00,,,0.00,Wunderground PWS Mod,2013-05-02 23:55:00,
2013-05-02 18:00:00,53.2,-0.1,30.42,North,357,4.0,5.0,11,0.00,,,0.00,Wunderground PWS Mod,2013-05-03 00:00:00,
2013-05-02 18:05:00,53.3,0.0,30.42,North,10,6.0,6.0,11,0.00,,,0.00,Wunderground PWS Mod,2013-05-03 00:05:00,
2013-05-02 18:10:00,53.3,0.0,30.42,North,8,5.0,10.0,11,0.00,,,0.00,Wunderground PWS Mod,2013-05-03 00:10:00,
2013-05-02 18:15:00,53.2,-0.1,30.40,NNE,23,10.0,10.0,11,0.00,,,0.00,Wunderground PWS Mod,2013-05-03 00:15:00,
2013-05-02 18:20:00,52.3,-0.8,30.40,NNE,20,9.0,10.0,11,0.00,,,0.00,Wunderground PWS Mod,2013-05-03 00:20:00,
2013-05-02 18:25:00,52.2,-0.8,30.40,North,4,5.0,8.0,11,0.00,,,0.00,Wunderground PWS Mod,2013-05-03 00:25:00,
2013-05-02 18:30:00,52.2,-0.8,30.41,North,4,7.0,8.0,11,0.00,,,0.00,Wunderground PWS Mod,2013-05-03 00:30:00,
2013-05-02 18:35:00,52.0,-1.0,30.41,North,5,4.0,6.0,11,0.00,,,0.00,Wunderground PWS Mod,2013-05-03 00:35:00,
2013-05-02 18:40:00,52.0,-1.0,30.41,NNW,346,9.0,11.0,11,0.00,,,0.00,Wunderground PWS Mod,2013-05-03 00:40:00,
2013-05-02 18:45:00,52.0,-1.0,30.41,North,357,3.0,6.0,11,0.00,,,0.00,Wunderground PWS Mod,2013-05-03 00:45:00,
2013-05-02 18:50:00,51.9,-1.1,30.41,North,11,5.0,7.0,11,0.00,,,0.00,Wunderground PWS Mod,2013-05-03 00:50:00,
2013-05-02 18:55:00,51.7,-1.2,30.41,NNE,17,6.0,7.0,11,0.00,,,0.00,Wunderground PWS Mod,2013-05-03 00:55:00,
2013-05-02 19:00:00,51.4,-1.5,30.41,North,354,4.0,6.0,11,0.00,,,0.00,Wunderground PWS Mod,2013-05-03 01:00:00,
2013-05-02 19:05:00,51.3,-1.5,30.41,North,8,6.0,7.0,11,0.00,,,0.00,Wunderground PWS Mod,2013-05-03 01:05:00,
2013-05-02 19:10:00,50.8,-1.9,30.41,North,8,7.0,9.0,11,0.00,,,0.00,Wunderground PWS Mod,2013-05-03 01:10:00,
2013-05-02 19:15:00,50.7,-2.0,30.38,North,358,5.0,6.0,11,0.00,,,0.00,Wunderground PWS Mod,2013-05-03 01:15:00,
2013-05-02 19:20:00,50.5,-2.2,30.38,North,11,5.0,5.0,11,0.00,,,0.00,Wunderground PWS Mod,2013-05-03 01:20:00,
2013-05-02 19:25:00,50.4,-2.3,30.38,NNE,13,5.0,12.0,11,0.00,,,0.00,Wunderground PWS Mod,2013-05-03 01:25:00,
2013-05-02 19:30:00,50.1,-0.6,30.39,North,5,4.0,5.0,12,0.00,,,0.00,Wunderground PWS Mod,2013-05-03 01:30:00,
2013-05-02 19:35:00,49.6,-1.0,30.39,NNE,23,4.0,5.0,12,0.00,,,0.00,Wunderground PWS Mod,2013-05-03 01:35:00,
2013-05-02 19:40:00,49.4,-1.2,30.39,North,0,4.0,5.0,12,0.00,,,0.00,Wunderground PWS Mod,2013-05-03 01:40:00,
2013-05-02 19:45:00,49.1,0.3,30.39,NNE,13,3.0,5.0,13,0.00,,,0.00,Wunderground PWS Mod,2013-05-03 01:45:00,
2013-05-02 19:50:00,48.6,-0.1,30.39,North,8,4.0,5.0,13,0.00,,,0.00,Wunderground PWS Mod,2013-05-03 01:50:00,
2013-05-02 19:55:00,48.2,-0.5,30.39,NNE,12,4.0,4.0,13,0.00,,,0.00,Wunderground PWS Mod,2013-05-03 01:55:00,
2013-05-02 20:00:00,47.7,-0.8,30.41,North,358,3.0,5.0,13,0.00,,,0.00,Wunderground PWS Mod,2013-05-03 02:00:00,
2013-05-02 20:05:00,47.3,-1.2,30.41,North,1,3.0,4.0,13,0.00,,,0.00,Wunderground PWS Mod,2013-05-03 02:05:00,
2013-05-02 20:10:00,46.5,-0.2,30.41,North,0,3.0,5.0,14,0.00,,,0.00,Wunderground PWS Mod,2013-05-03 02:10:00,
2013-05-02 20:15:00,46.4,-0.3,30.38,North,1,3.0,3.0,14,0.00,,,0.00,Wunderground PWS Mod,2013-05-03 02:15:00,
2013-05-02 20:20:00,45.8,-0.8,30.38,NNE,16,1.0,3.0,14,0.00,,,0.00,Wunderground PWS Mod,2013-05-03 02:20:00,
2013-05-02 20:25:00,44.9,-0.1,30.38,NNE,16,2.0,3.0,15,0.00,,,0.00,Wunderground PWS Mod,2013-05-03 02:25:00,
2013-05-02 20:30:00,44.5,-0.4,30.39,North,11,2.0,4.0,15,0.00,,,0.00,Wunderground PWS Mod,2013-05-03 02:30:00,
2013-05-02 20:35:00,44.3,-0.5,30.39,North,358,2.0,4.0,15,0.00,,,0.00,Wunderground PWS Mod,2013-05-03 02:35:00,
2013-05-02 20:40:00,44.5,-0.4,30.39,North,11,4.0,4.0,15,0.00,,,0.00,Wunderground PWS Mod,2013-05-03 02:40:00,
2013-05-02 20:45:00,44.2,-0.6,30.40,North,10,4.0,4.0,15,0.00,,,0.00,Wunderground PWS Mod,2013-05-03 02:45:00,
2013-05-02 20:50:00,43.6,0.3,30.40,NNE,20,3.0,4.0,16,0.00,,,0.00,Wunderground PWS Mod,2013-05-03 02:50:00,
2013-05-02 20:55:00,43.6,0.3,30.40,NNE,25,3.0,4.0,16,0.00,,,0.00,Wunderground PWS Mod,2013-05-03 02:55:00,
2013-05-02 21:00:00,43.3,0.0,30.40,NNE,18,4.0,5.0,16,0.00,,,0.00,Wunderground PWS Mod,2013-05-03 03:00:00,
2013-05-02 21:05:00,43.3,0.0,30.40,NE,42,3.0,4.0,16,0.00,,,0.00,Wunderground PWS Mod,2013-05-03 03:05:00,
2013-05-02 21:10:00,43.2,-0.1,30.40,NNE,25,4.0,4.0,16,0.00,,,0.00,Wunderground PWS Mod,2013-05-03 03:10:00,
2013-05-02 21:15:00,43.2,-0.1,30.39,North,9,4.0,6.0,16,0.00,,,0.00,Wunderground PWS Mod,2013-05-03 03:15:00,
2013-05-02 21:20:00,43.2,1.2,30.39,NNE,24,4.0,6.0,17,0.00,,,0.00,Wunderground PWS Mod,2013-05-03 03:20:00,
2013-05-02 21:25:00,43.8,1.7,30.39,NNE,25,6.0,10.0,17,0.00,,,0.00,Wunderground PWS Mod,2013-05-03 03:25:00,
2013-05-02 21:30:00,44.3,0.8,30.37,NNE,32,8.0,8.0,16,0.00,,,0.00,Wunderground PWS Mod,2013-05-03 03:30:00,
2013-05-02 21:35:00,44.2,2.1,30.37,NNE,18,5.0,6.0,17,0.00,,,0.00,Wunderground PWS Mod,2013-05-03 03:35:00,
2013-05-02 21:40:00,44.1,2.0,30.37,NNE,24,4.0,9.0,17,0.00,,,0.00,Wunderground PWS Mod,2013-05-03 03:40:00,
2013-05-02 21:45:00,43.6,1.6,30.38,NNE,27,4.0,5.0,17,0.00,,,0.00,Wunderground PWS Mod,2013-05-03 03:45:00,
2013-05-02 21:51:00,43.2,2.5,30.38,NNE,27,3.0,4.0,18,0.00,,,0.00,Wunderground PWS Mod,2013-05-03 03:51:00,
2013-05-02 21:56:00,43.2,2.5,30.38,NE,53,5.0,6.0,18,0.00,,,0.00,Wunderground PWS Mod,2013-05-03 03:56:00,
2013-05-02 22:01:00,43.3,2.6,30.40,NE,34,4.0,9.0,18,0.00,,,0.00,Wunderground PWS Mod,2013-05-03 04:01:00,
2013-05-02 22:06:00,43.3,2.6,30.40,NNE,28,5.0,8.0,18,0.00,,,0.00,Wunderground PWS Mod,2013-05-03 04:06:00,
2013-05-02 22:11:00,43.3,2.6,30.40,NNE,20,5.0,8.0,18,0.00,,,0.00,Wunderground PWS Mod,2013-05-03 04:11:00,
2013-05-02 22:16:00,43.2,2.5,30.37,ENE,57,5.0,10.0,18,0.00,,,0.00,Wunderground PWS Mod,2013-05-03 04:16:00,
2013-05-02 22:21:00,43.1,2.4,30.37,NNE,25,5.0,6.0,18,0.00,,,0.00,Wunderground PWS Mod,2013-05-03 04:21:00,
2013-05-02 22:26:00,42.8,2.1,30.37,NNE,23,3.0,7.0,18,0.00,,,0.00,Wunderground PWS Mod,2013-05-03 04:26:00,
2013-05-02 22:31:00,42.5,1.9,30.37,NNE,31,3.0,4.0,18,0.00,,,0.00,Wunderground PWS Mod,2013-05-03 04:31:00,
2013-05-02 22:36:00,42.2,2.8,30.37,North,6,3.0,4.0,19,0.00,,,0.00,Wunderground PWS Mod,2013-05-03 04:36:00,
2013-05-02 22:41:00,42.3,1.7,30.37,NNE,20,3.0,4.0,18,0.00,,,0.00,Wunderground PWS Mod,2013-05-03 04:41:00,
2013-05-02 22:46:00,42.1,2.7,30.38,NNE,23,3.0,4.0,19,0.00,,,0.00,Wunderground PWS Mod,2013-05-03 04:46:00,
2013-05-02 22:51:00,41.8,2.5,30.38,NNE,23,3.0,5.0,19,0.00,,,0.00,Wunderground PWS Mod,2013-05-03 04:51:00,
2013-05-02 22:56:00,41.5,2.2,30.38,NNE,25,2.0,3.0,19,0.00,,,0.00,Wunderground PWS Mod,2013-05-03 04:56:00,
2013-05-02 23:01:00,41.1,1.9,30.37,NNE,23,3.0,4.0,19,0.00,,,0.00,Wunderground PWS Mod,2013-05-03 05:01:00,
2013-05-02 23:06:00,40.8,2.7,30.37,NE,42,6.0,7.0,20,0.00,,,0.00,Wunderground PWS Mod,2013-05-03 05:06:00,
2013-05-02 23:11:00,41.1,1.9,30.37,NNE,25,4.0,4.0,19,0.00,,,0.00,Wunderground PWS Mod,2013-05-03 05:11:00,
2013-05-02 23:16:00,40.9,2.8,30.35,North,2,4.0,10.0,20,0.00,,,0.00,Wunderground PWS Mod,2013-05-03 05:16:00,
2013-05-02 23:21:00,41.3,2.1,30.35,NNE,23,4.0,5.0,19,0.00,,,0.00,Wunderground PWS Mod,2013-05-03 05:21:00,
2013-05-02 23:26:00,41.3,2.1,30.35,NNE,22,3.0,4.0,19,0.00,,,0.00,Wunderground PWS Mod,2013-05-03 05:26:00,
2013-05-02 23:31:00,40.9,2.8,30.34,NNE,30,3.0,4.0,20,0.00,,,0.00,Wunderground PWS Mod,2013-05-03 05:31:00,
2013-05-02 23:36:00,40.2,2.2,30.34,NNE,33,2.0,3.0,20,0.00,,,0.00,Wunderground PWS Mod,2013-05-03 05:36:00,
2013-05-02 23:41:00,39.6,2.8,30.34,NNE,31,1.0,2.0,21,0.00,,,0.00,Wunderground PWS Mod,2013-05-03 05:41:00,
2013-05-02 23:47:00,39.5,2.7,30.35,NNE,31,2.0,3.0,21,0.00,,,0.00,Wunderground PWS Mod,2013-05-03 05:47:00,
2013-05-02 23:51:00,39.5,2.7,30.35,NNE,20,2.0,3.0,21,0.00,,,0.00,Wunderground PWS Mod,2013-05-03 05:51:00,
2013-05-02 23:56:00,39.3,2.5,30.35,NNE,13,1.0,2.0,21,0.00,,,0.00,Wunderground PWS Mod,2013-05-03 05:56:00,